#timestamp,LO_Frequency,Hit 
1505754015.0,286047002.3,N
1505754015.9,286047002.3,N
1505754035.8,286046999.7,N
1505754055.6,286047000.5,N
1505754075.4,286046999.7,N
1505754095.3,286047001.8,N
1505754115.1,286047004.8,N
1505754116.0,286047004.8,N
1505754135.8,286047005.3,N
1505754155.7,286047004.8,N
1505754175.5,286047007.4,P
1505754195.3,286047003.0,N
1505754215.2,286047004.0,N
1505754235.9,286047001.0,N
1505754255.7,286046997.4,N
1505754275.6,286046997.9,N
1505754295.4,286046997.6,N
1505754315.2,286046997.4,N
1505754335.1,286046995.1,N
1505754336.0,286046995.1,N
1505754355.8,286046996.2,N
1505754375.6,286046999.4,N
1505754395.4,286046999.2,N
1505754415.3,286046998.8,N
1505754435.1,286046998.7,N
1505754455.8,286046998.4,N
1505754475.7,286047000.7,N
1505754495.5,286047002.8,N
1505754515.3,286047001.4,N
1505754535.2,286047001.6,N
1505754555.9,286046999.7,N
1505754575.7,286047000.0,N
1505754595.6,286047002.7,N
1505754615.4,286047001.4,N
1505754635.2,286047003.1,N
1505754655.0,286047004.7,N
1505754656.0,286047004.7,N
1505754675.8,286047003.3,N
1505754695.6,286047006.0,N
1505754715.4,286047004.6,N
1505754735.3,286047007.1,N
1505754755.1,286047005.0,N
1505754775.8,286047005.3,N
1505754795.7,286047005.8,N
1505754815.5,286047003.6,N
1505754835.3,286047001.6,N
1505754855.2,286047001.8,N
1505754875.9,286047001.8,N
1505754895.7,286047003.4,N
1505754915.6,286047004.9,N
1505754935.4,286047007.0,N
1505754955.2,286047007.4,N
1505754975.1,286047003.1,N
1505754976.0,286047003.1,N
1505754995.8,286047002.9,N
1505755015.6,286047007.4,P
1505755035.5,286047002.2,N
1505755055.3,286047002.1,N
1505755075.1,286047002.8,N
1505755095.9,286047004.4,N
1505755115.7,286047003.2,N
1505755135.5,286047004.3,N
1505755155.4,286047005.6,P
1505755175.2,286046999.3,N
1505755195.0,286046998.3,N
1505755195.9,286046998.3,N
1505755215.8,286047001.9,N
1505755235.6,286047001.7,N
1505755255.4,286047002.3,N
1505755275.3,286047002.7,N
1505755295.1,286047001.6,N
1505755296.0,286047001.6,N
1505755315.8,286047003.8,N
1505755335.6,286047001.7,N
1505755355.5,286047003.2,N
1505755375.3,286047002.8,N
1505755395.1,286047000.4,N
1505755415.9,286047002.0,N
1505755435.7,286047003.4,N
1505755455.5,286047005.8,P
1505755475.4,286047000.4,N
1505755495.2,286047000.8,N
1505755515.0,286047000.2,N
1505755515.9,286047000.2,N
1505755535.8,286047004.4,N
1505755555.6,286047001.6,N
1505755575.4,286047003.7,N
1505755595.3,286047003.0,N
1505755615.1,286047003.9,N
1505755616.0,286047003.9,N
1505755635.8,286047001.6,N
1505755655.7,286047004.0,N
1505755675.5,286047004.4,N
1505755695.3,286047001.5,N
1505755715.1,286047001.5,N
1505755735.9,286047004.0,N
1505755755.7,286047001.4,N
1505755775.5,286047001.5,N
1505755795.4,286047003.8,N
1505755815.2,286047003.6,N
1505755835.0,286047005.2,P
1505755836.0,286047005.2,P
1505755855.8,286047004.4,P
1505755875.6,286047001.6,N
1505755895.4,286047002.8,N
1505755915.3,286047002.4,N
1505755935.1,286047000.5,N
1505755955.8,286046999.8,N
1505755975.7,286047000.2,N
1505755995.5,286047002.7,N
1505756015.3,286047002.2,N
1505756035.2,286047002.0,N
1505756055.9,286047002.8,N
1505756075.7,286047001.5,N
1505756095.6,286047003.9,N
1505756115.4,286047003.3,N
1505756135.2,286047001.3,N
1505756155.0,286047002.3,N
1505756156.0,286047002.3,N
1505756175.8,286047003.2,N
1505756195.6,286047002.2,N
1505756215.4,286047001.0,N
1505756235.3,286046999.4,N
1505756255.1,286046996.5,N
1505756275.8,286046999.0,N
1505756295.7,286047000.9,N
1505756315.5,286047002.8,N
1505756335.3,286047001.4,N
1505756355.2,286047004.4,N
1505756375.9,286047005.4,N
1505756395.7,286047003.8,N
1505756415.6,286047001.5,N
1505756435.4,286047004.1,N
1505756455.2,286047005.1,N
1505756475.0,286047004.2,N
1505756475.9,286047004.2,N
1505756495.8,286047001.6,N
1505756515.6,286047002.1,N
1505756535.4,286047004.4,N
1505756555.3,286047002.0,N
1505756575.1,286047001.7,N
1505756595.8,286047003.6,N
1505756615.7,286047003.6,N
1505756635.5,286047005.6,N
1505756655.3,286047006.0,P
1505756675.2,286047001.5,N
1505756695.0,286047002.1,N
1505756695.9,286047002.1,N
1505756715.7,286046999.7,N
1505756735.6,286047001.9,N
1505756755.4,286047002.3,N
1505756775.2,286047002.0,N
1505756795.1,286047000.3,N
1505756796.0,286047000.3,N
1505756815.8,286047002.7,N
1505756835.6,286047000.4,N
1505756855.5,286047000.3,N
1505756875.3,286046998.6,N
1505756895.1,286047001.4,N
1505756915.8,286047002.5,N
1505756935.7,286047002.7,N
1505756955.5,286047002.6,N
1505756975.3,286047002.3,N
1505756995.2,286047002.0,N
1505757015.9,286046999.7,N
1505757035.7,286047000.2,N
1505757055.6,286047001.8,N
1505757075.4,286047001.3,N
1505757095.2,286047002.4,N
1505757115.1,286047005.1,P
1505757116.0,286047005.1,N
1505757135.8,286047005.8,P
1505757155.6,286047002.9,N
1505757175.5,286047003.6,N
1505757195.3,286047005.6,P
1505757215.1,286046999.9,N
1505757235.9,286047000.4,N
1505757255.7,286046999.5,N
1505757275.5,286046996.8,N
1505757295.4,286046996.9,N
1505757315.2,286046996.7,N
1505757335.0,286046998.2,N
1505757335.9,286046998.2,N
1505757355.8,286046996.7,N
1505757375.6,286046997.1,N
1505757395.4,286046997.6,N
1505757415.3,286046999.4,N
1505757435.1,286046999.4,N
1505757436.0,286046999.4,N
1505757455.8,286046994.9,N
1505757475.6,286046999.3,N
1505757495.5,286046998.7,N
1505757515.3,286046999.3,N
1505757535.1,286046999.0,N
1505757555.9,286046998.4,N
1505757575.7,286046996.9,N
1505757595.5,286046996.7,N
